Location: St. Louis
(38.6270°N, 90.1994°W)
Time: 12:28:52
(UTC-06:00)

Altair - Pass Details

Date: 01 December 2021
Orbit: 1501 x 1683 km, 47.2° (Epoch: 25 January)

Event Time Altitude Azimuth Distance (km) Brightness Sun altitude
Rises 14:20:34 0° 203° (SSW) 4,814 11.5 19.9°
Reaches altitude 10° 14:24:01 10° 195° (SSW) 3,804 11.0 19.5°
Maximum altitude 14:32:33 37° 133° (SE) 2,252 8.6 18.5°
Drops below altitude 10° 14:40:48 10° 70° (ENE) 3,696 9.1 17.4°
Sets 14:44:05 0° 62° (ENE) 4,663 9.5 17.0°
